�������l�o���
Date,Time,MP-1(��Sv/h),MP-2(��Sv/h),MP-3(��Sv/h),MP-4(��Sv/h),MP-5(��Sv/h),MP-6(��Sv/h),MP-7(��Sv/h),MP-8(��Sv/h),����,����(m/s),���J
2020/11/25,00:00,0.687,0.994,0.623,1.230,0.879,0.387,0.682,0.641,�k,4.2,�L
2020/11/25,00:10,0.686,0.994,0.622,1.229,0.879,0.387,0.682,0.642,�k,4.1,�L
2020/11/25,00:20,0.686,0.991,0.621,1.230,0.878,0.388,0.682,0.642,�k,2.6,�L
2020/11/25,00:30,0.687,0.994,0.621,1.230,0.878,0.388,0.679,0.642,�k,2.5,�L
2020/11/25,00:40,0.686,0.993,0.623,1.228,0.879,0.389,0.681,0.642,�k�k��,2.2,�L
2020/11/25,00:50,0.687,0.994,0.624,1.229,0.879,0.390,0.683,0.641,�k�k��,2.5,��
2020/11/25,01:00,0.686,0.992,0.622,1.230,0.879,0.389,0.681,0.642,�k��,3.3,�L
2020/11/25,01:10,0.687,0.993,0.621,1.228,0.878,0.390,0.682,0.642,�k��,2.6,�L
2020/11/25,01:20,0.687,0.991,0.622,1.228,0.879,0.390,0.683,0.642,�k��,3.0,�L
2020/11/25,01:30,0.685,0.991,0.620,1.229,0.878,0.388,0.683,0.640,�k��,3.2,�L
2020/11/25,01:40,0.685,0.992,0.619,1.229,0.877,0.388,0.683,0.641,�k��,3.0,�L
2020/11/25,01:50,0.685,0.991,0.620,1.227,0.879,0.387,0.682,0.642,�k��,3.8,�L
2020/11/25,02:00,0.686,0.991,0.622,1.227,0.877,0.387,0.682,0.641,�k��,3.3,�L
2020/11/25,02:10,0.684,0.993,0.620,1.228,0.877,0.388,0.681,0.642,�k��,4.1,�L
2020/11/25,02:20,0.685,0.991,0.620,1.228,0.877,0.386,0.683,0.642,�k��,4.0,�L
2020/11/25,02:30,0.684,0.992,0.617,1.230,0.877,0.388,0.681,0.641,�k��,4.1,�L
2020/11/25,02:40,0.685,0.990,0.621,1.230,0.874,0.387,0.681,0.641,�k��,4.3,��
2020/11/25,02:50,0.684,0.990,0.619,1.227,0.878,0.387,0.681,0.641,�k��,4.2,��
2020/11/25,03:00,0.684,0.991,0.620,1.226,0.877,0.386,0.681,0.641,�k��,3.6,�L
2020/11/25,03:10,0.683,0.992,0.619,1.227,0.877,0.386,0.682,0.640,�k��,3.9,��
2020/11/25,03:20,0.684,0.991,0.619,1.226,0.877,0.387,0.681,0.641,�k��,3.9,��
2020/11/25,03:30,0.683,0.991,0.619,1.225,0.877,0.386,0.682,0.641,�k��,4.0,��
2020/11/25,03:40,0.684,0.992,0.620,1.227,0.877,0.385,0.682,0.640,�k��,4.3,��
2020/11/25,03:50,0.686,0.990,0.619,1.225,0.877,0.387,0.682,0.641,�k��,4.1,��
2020/11/25,04:00,0.685,0.990,0.620,1.228,0.877,0.386,0.680,0.640,�k��,3.8,��
2020/11/25,04:10,0.684,0.990,0.620,1.226,0.874,0.387,0.681,0.641,�k��,3.5,��
2020/11/25,04:20,0.684,0.988,0.619,1.226,0.876,0.386,0.683,0.642,�k��,4.0,��
2020/11/25,04:30,0.684,0.989,0.619,1.228,0.877,0.385,0.681,0.640,�k��,2.8,��
2020/11/25,04:40,0.684,0.991,0.619,1.227,0.873,0.386,0.681,0.641,�k��,3.2,��
2020/11/25,04:50,0.683,0.991,0.620,1.228,0.875,0.386,0.682,0.640,�k��,3.1,��
2020/11/25,05:00,0.685,0.989,0.619,1.227,0.875,0.386,0.681,0.640,�k��,3.4,�L
2020/11/25,05:10,0.685,0.989,0.620,1.229,0.876,0.385,0.683,0.641,�k��,3.1,�L
2020/11/25,05:20,0.684,0.988,0.621,1.228,0.876,0.387,0.682,0.640,�k��,3.2,�L
2020/11/25,05:30,0.683,0.991,0.619,1.229,0.876,0.386,0.682,0.642,���k��,2.9,�L
2020/11/25,05:40,0.685,0.992,0.623,1.229,0.875,0.389,0.683,0.643,�k��,2.9,�L
2020/11/25,05:50,0.686,0.992,0.622,1.229,0.877,0.387,0.681,0.642,�k��,2.5,�L
2020/11/25,06:00,0.686,0.991,0.622,1.229,0.880,0.388,0.682,0.642,�k��,2.5,�L
2020/11/25,06:10,0.685,0.989,0.620,1.226,0.876,0.388,0.682,0.641,�k��,2.9,��
2020/11/25,06:20,0.686,0.990,0.620,1.228,0.874,0.389,0.681,0.640,�k��,2.5,��
2020/11/25,06:30,0.685,0.990,0.621,1.229,0.876,0.387,0.680,0.639,���k��,2.5,��
2020/11/25,06:40,0.683,0.989,0.621,1.225,0.874,0.388,0.682,0.640,���k��,2.3,�L
2020/11/25,06:50,0.683,0.986,0.620,1.227,0.875,0.386,0.682,0.640,���k��,2.8,�L
2020/11/25,07:00,0.684,0.989,0.619,1.228,0.874,0.386,0.683,0.641,���k��,2.0,�L
2020/11/25,07:10,0.684,0.988,0.621,1.225,0.873,0.387,0.681,0.642,�k��,1.2,�L
2020/11/25,07:20,0.684,0.988,0.618,1.226,0.873,0.387,0.681,0.640,��,0.9,�L
2020/11/25,07:30,0.684,0.987,0.618,1.228,0.874,0.386,0.682,0.642,���쐼,1.2,��
2020/11/25,07:40,0.684,0.985,0.617,1.228,0.872,0.386,0.682,0.642,���쐼,1.7,�L
2020/11/25,07:50,0.682,0.988,0.618,1.227,0.874,0.387,0.680,0.642,���쐼,1.5,�L
2020/11/25,08:00,0.684,0.985,0.620,1.226,0.874,0.386,0.681,0.640,��,1.5,�L
2020/11/25,08:10,0.683,0.985,0.619,1.227,0.871,0.388,0.681,0.641,�k�k��,1.5,�L
2020/11/25,08:20,0.683,0.986,0.620,1.227,0.872,0.387,0.681,0.641,�k��,1.9,�L
2020/11/25,08:30,0.683,0.985,0.620,1.226,0.874,0.386,0.681,0.641,�k�k��,2.0,��
2020/11/25,08:40,0.683,0.984,0.617,1.227,0.872,0.387,0.682,0.640,�k�k��,2.5,��
2020/11/25,08:50,0.683,0.982,0.618,1.227,0.873,0.386,0.683,0.641,�k��,2.6,��
2020/11/25,09:00,0.684,0.986,0.618,1.227,0.874,0.388,0.681,0.642,�k��,3.9,��
2020/11/25,09:10,0.684,0.985,0.619,1.225,0.873,0.386,0.682,0.642,�k��,3.4,��
2020/11/25,09:20,0.682,0.982,0.618,1.225,0.875,0.386,0.681,0.641,�k�k��,2.6,��
2020/11/25,09:30,0.685,0.985,0.619,1.227,0.873,0.386,0.682,0.640,�k�k��,4.5,��
2020/11/25,09:40,0.682,0.983,0.619,1.225,0.874,0.386,0.681,0.641,�k��,3.5,�L
2020/11/25,09:50,0.684,0.983,0.618,1.224,0.870,0.386,0.679,0.640,�k��,3.9,�L
2020/11/25,10:00,0.686,0.981,0.618,1.226,0.872,0.386,0.681,0.641,�k�k��,4.5,�L
2020/11/25,10:10,0.684,0.982,0.620,1.225,0.872,0.387,0.681,0.641,�k�k��,4.7,�L
2020/11/25,10:20,0.685,0.983,0.619,1.226,0.872,0.388,0.680,0.642,�k�k��,4.8,�L
2020/11/25,10:30,0.684,0.979,0.619,1.228,0.871,0.387,0.679,0.642,�k�k��,4.6,�L
2020/11/25,10:40,0.683,0.982,0.620,1.226,0.872,0.387,0.679,0.640,�k�k��,4.6,�L
2020/11/25,10:50,0.684,0.979,0.619,1.226,0.871,0.387,0.681,-,�k�k��,4.9,�L
2020/11/25,11:00,0.681,0.981,0.619,1.224,0.871,0.387,0.681,-,�k�k��,4.8,�L
2020/11/25,11:10,0.684,0.982,0.619,1.226,0.871,0.389,0.680,-,�k�k��,4.9,�L
2020/11/25,11:20,0.685,0.981,0.619,1.226,0.873,0.388,0.680,-,�k�k��,4.8,�L
2020/11/25,11:30,0.684,0.978,0.620,1.225,0.871,0.386,0.679,-,�k�k��,4.7,�L
2020/11/25,11:40,0.684,0.983,0.619,1.224,0.870,0.387,0.679,-,�k�k��,4.6,�L
2020/11/25,11:50,0.683,0.982,0.618,1.224,0.871,0.387,0.680,-,�k�k��,5.2,��
2020/11/25,12:00,0.683,0.981,0.618,1.225,0.868,0.386,0.680,-,�k�k��,4.6,�L
2020/11/25,12:10,0.682,0.979,0.618,1.226,0.871,0.387,0.680,-,�k�k��,4.6,��
2020/11/25,12:20,0.682,0.980,0.619,1.223,0.871,0.385,0.679,-,�k�k��,4.4,��
2020/11/25,12:30,0.680,0.981,0.617,1.224,0.868,0.385,0.681,-,�k�k��,4.2,�L
2020/11/25,12:40,0.682,0.980,0.618,1.221,0.867,0.387,0.681,-,�k�k��,3.9,�L
2020/11/25,12:50,0.683,0.983,0.617,1.223,0.871,0.385,0.680,-,�k�k��,4.6,�L
2020/11/25,13:00,0.684,0.978,0.618,1.224,0.868,0.387,0.679,-,�k�k��,4.6,�L
2020/11/25,13:10,0.684,0.976,0.617,1.223,0.867,0.386,0.679,-,�k,4.4,�L
2020/11/25,13:20,0.683,0.975,0.617,1.224,0.871,0.388,0.680,-,�k,4.6,�L
2020/11/25,13:30,0.682,0.972,0.617,1.222,0.866,0.387,0.678,-,�k�k��,5.1,�L
2020/11/25,13:40,0.681,0.972,0.617,1.220,0.864,0.386,0.679,-,�k�k��,4.7,�L
2020/11/25,13:50,0.679,0.974,0.618,1.221,0.864,0.388,0.678,-,�k�k��,4.5,�L
2020/11/25,14:00,0.679,0.971,0.617,1.217,0.865,0.389,0.679,-,�k�k��,4.0,�L
2020/11/25,14:10,0.679,0.970,0.616,1.217,0.863,0.388,0.678,-,�k�k��,4.5,�L
2020/11/25,14:20,0.678,0.968,0.614,1.216,0.860,0.387,0.678,-,�k�k��,3.6,�L
2020/11/25,14:30,0.677,0.969,0.616,1.212,0.860,0.388,0.676,-,�k�k��,4.0,�L
2020/11/25,14:40,0.678,0.965,0.614,1.209,0.858,0.388,0.675,-,�k�k��,4.3,�L
2020/11/25,14:50,0.675,0.965,0.615,1.209,0.858,0.387,0.675,-,�k�k��,4.7,�L
2020/11/25,15:00,0.675,0.965,0.613,1.208,0.856,0.386,0.675,-,�k�k��,5.1,�L
2020/11/25,15:10,0.673,0.964,0.611,1.205,0.856,0.385,0.675,-,�k��,4.3,�L
2020/11/25,15:20,0.673,0.959,0.611,1.200,0.852,0.385,0.675,-,�k��,4.7,�L
2020/11/25,15:30,0.673,0.956,0.610,1.198,0.849,0.383,0.673,0.639,�k�k��,4.2,�L
2020/11/25,15:40,0.672,0.957,0.610,1.198,0.851,0.384,0.671,0.636,�k�k��,4.2,�L
2020/11/25,15:50,0.672,0.957,0.609,1.196,0.848,0.383,0.672,0.634,�k�k��,4.3,�L
2020/11/25,16:00,0.669,0.957,0.609,1.196,0.847,0.383,0.672,0.635,�k��,3.5,�L
2020/11/25,16:10,0.668,0.953,0.610,1.194,0.847,0.384,0.672,0.635,�k�k��,4.4,�L
2020/11/25,16:20,0.668,0.954,0.609,1.189,0.843,0.383,0.670,0.633,�k�k��,5.1,�L
2020/11/25,16:30,0.667,0.956,0.607,1.191,0.842,0.382,0.670,0.633,�k��,4.5,�L
2020/11/25,16:40,0.664,0.955,0.607,1.189,0.844,0.382,0.670,0.634,�k��,4.5,�L
2020/11/25,16:50,0.666,0.953,0.605,1.188,0.844,0.383,0.670,0.634,�k��,3.5,��
2020/11/25,17:00,0.666,0.952,0.606,1.189,0.844,0.381,0.674,0.634,�k�k��,4.0,�L
2020/11/25,17:10,0.666,0.952,0.604,1.188,0.844,0.381,0.670,0.632,�k��,4.1,��
2020/11/25,17:20,0.664,0.955,0.605,1.188,0.843,0.383,0.670,0.634,�k�k��,4.4,�L
2020/11/25,17:30,0.666,0.955,0.606,1.189,0.844,0.383,0.672,0.632,�k��,3.6,�L
2020/11/25,17:40,0.665,0.952,0.605,1.186,0.845,0.382,0.671,0.632,�k��,3.5,�L
2020/11/25,17:50,0.667,0.952,0.606,1.189,0.844,0.381,0.671,0.632,�k��,3.7,�L
2020/11/25,18:00,0.665,0.952,0.606,1.186,0.844,0.381,0.672,0.631,�k��,3.4,�L
2020/11/25,18:10,0.666,0.952,0.604,1.188,0.842,0.380,0.672,0.633,�k��,2.8,�L
2020/11/25,18:20,0.664,0.953,0.605,1.186,0.843,0.382,0.672,0.632,�k��,3.5,��
2020/11/25,18:30,0.664,0.952,0.604,1.185,0.842,0.382,0.671,0.631,�k��,3.7,��
2020/11/25,18:40,0.665,0.952,0.603,1.186,0.843,0.381,0.672,0.631,�k��,3.6,��
2020/11/25,18:50,0.664,0.951,0.605,1.186,0.843,0.379,0.671,0.632,�k��,3.2,��
2020/11/25,19:00,0.664,0.950,0.604,1.185,0.840,0.380,0.672,0.630,�k��,2.6,��
2020/11/25,19:10,0.663,0.952,0.603,1.184,0.841,0.380,0.671,0.633,�k�k��,2.6,��
2020/11/25,19:20,0.664,0.949,0.604,1.186,0.841,0.380,0.671,0.632,�k��,2.8,��
2020/11/25,19:30,0.663,0.951,0.604,1.186,0.842,0.380,0.671,0.632,�k��,2.6,��
2020/11/25,19:40,0.663,0.953,0.604,1.186,0.843,0.380,0.672,0.630,�k��,2.8,��
2020/11/25,19:50,0.663,0.951,0.603,1.187,0.843,0.380,0.670,0.631,�k�k��,2.5,��
2020/11/25,20:00,0.663,0.953,0.603,1.187,0.841,0.380,0.670,0.632,�k�k��,2.6,��
2020/11/25,20:10,0.662,0.951,0.604,1.185,0.843,0.379,0.670,0.633,�k�k��,2.5,��
2020/11/25,20:20,0.662,0.949,0.603,1.187,0.842,0.379,0.670,0.632,�k�k��,2.3,��
2020/11/25,20:30,0.664,0.952,0.605,1.185,0.843,0.380,0.671,0.633,�k�k��,2.8,��
2020/11/25,20:40,0.662,0.951,0.603,1.185,0.843,0.379,0.669,0.632,�k��,2.9,��
2020/11/25,20:50,0.664,0.954,0.603,1.186,0.843,0.380,0.670,0.632,�k��,2.5,��
2020/11/25,21:00,0.664,0.953,0.604,1.187,0.843,0.380,0.670,0.630,�k��,3.0,��
2020/11/25,21:10,0.665,0.951,0.603,1.184,0.844,0.380,0.670,0.633,�k��,3.0,��
2020/11/25,21:20,0.663,0.952,0.604,1.188,0.845,0.379,0.673,0.631,�k��,2.6,��
2020/11/25,21:30,0.664,0.953,0.605,1.187,0.843,0.380,0.671,0.632,�k�k��,3.2,��
2020/11/25,21:40,0.666,0.952,0.604,1.186,0.843,0.381,0.672,0.631,�k��,2.6,��
2020/11/25,21:50,0.664,0.952,0.605,1.187,0.843,0.380,0.671,0.632,�k�k��,2.5,��
2020/11/25,22:00,0.665,0.950,0.604,1.186,0.842,0.380,0.671,0.630,�k�k��,3.3,��
2020/11/25,22:10,0.666,0.954,0.605,1.187,0.841,0.380,0.671,0.633,�k��,3.8,��
2020/11/25,22:20,0.662,0.953,0.604,1.188,0.843,0.381,0.672,0.630,�k��,3.3,��
2020/11/25,22:30,0.663,0.953,0.606,1.187,0.842,0.381,0.673,0.632,�k��,3.1,��
2020/11/25,22:40,0.665,0.953,0.603,1.187,0.842,0.380,0.671,0.631,�k��,3.0,��
2020/11/25,22:50,0.663,0.951,0.604,1.188,0.844,0.379,0.670,0.631,�k��,3.0,��
2020/11/25,23:00,0.662,0.952,0.603,1.187,0.841,0.380,0.671,0.633,�k��,2.5,��
2020/11/25,23:10,0.663,0.950,0.603,1.187,0.842,0.380,0.670,0.632,�k��,2.3,��
2020/11/25,23:20,0.663,0.950,0.603,1.185,0.843,0.380,0.670,0.632,�k��,1.9,��
2020/11/25,23:30,0.664,0.951,0.601,1.187,0.845,0.380,0.671,0.631,�k��,2.0,��
2020/11/25,23:40,0.663,0.951,0.602,1.187,0.843,0.380,0.670,0.632,�k��,1.7,��
2020/11/25,23:50,0.665,0.952,0.604,1.185,0.844,0.381,0.671,0.631,�k��,1.7,��
